Year,Month,Day,Hour,Minute,Value (Times are PST for temperature in C)
2007,07,27,00,00,16.00
2007,07,27,00,01,15.90
2007,07,27,00,02,15.90
2007,07,27,00,03,15.90
2007,07,27,00,04,15.90
2007,07,27,00,05,15.90
2007,07,27,00,06,15.90
2007,07,27,00,07,15.80
2007,07,27,00,08,15.80
2007,07,27,00,09,15.80
2007,07,27,00,10,15.80
2007,07,27,00,11,15.80
2007,07,27,00,12,15.70
2007,07,27,00,13,15.70
2007,07,27,00,14,15.70
2007,07,27,00,15,15.70
2007,07,27,00,16,15.70
2007,07,27,00,17,15.70
2007,07,27,00,18,15.70
2007,07,27,00,19,15.70
2007,07,27,00,20,15.70
2007,07,27,00,21,15.70
2007,07,27,00,22,15.60
2007,07,27,00,23,15.60
2007,07,27,00,24,15.50
2007,07,27,00,25,15.50
2007,07,27,00,26,15.40
2007,07,27,00,27,15.40
2007,07,27,00,28,15.40
2007,07,27,00,29,15.30
2007,07,27,00,30,15.30
2007,07,27,00,31,15.30
2007,07,27,00,32,15.30
2007,07,27,00,33,15.30
2007,07,27,00,34,15.20
2007,07,27,00,35,15.20
2007,07,27,00,36,15.20
2007,07,27,00,37,15.20
2007,07,27,00,38,15.20
2007,07,27,00,39,15.20
2007,07,27,00,40,15.20
2007,07,27,00,41,15.20
2007,07,27,00,42,15.20
2007,07,27,00,43,15.20
2007,07,27,00,44,15.10
2007,07,27,00,45,15.10
2007,07,27,00,46,15.10
2007,07,27,00,47,15.10
2007,07,27,00,48,15.00
2007,07,27,00,49,15.00
2007,07,27,00,50,15.00
2007,07,27,00,51,15.00
2007,07,27,00,52,15.10
2007,07,27,00,53,15.10
2007,07,27,00,54,15.20
2007,07,27,00,55,15.30
2007,07,27,00,56,15.30
2007,07,27,00,57,15.30
2007,07,27,00,58,15.30
2007,07,27,00,59,15.30
2007,07,27,01,00,15.30
2007,07,27,01,01,15.30
2007,07,27,01,02,15.30
2007,07,27,01,03,15.30
2007,07,27,01,04,15.30
2007,07,27,01,05,15.30
2007,07,27,01,06,15.30
2007,07,27,01,07,15.30
2007,07,27,01,08,15.30
2007,07,27,01,09,15.30
2007,07,27,01,10,15.30
2007,07,27,01,11,15.30
2007,07,27,01,12,15.30
2007,07,27,01,13,15.30
2007,07,27,01,14,15.20
2007,07,27,01,15,15.20
2007,07,27,01,16,15.20
2007,07,27,01,17,15.20
2007,07,27,01,18,15.20
2007,07,27,01,19,15.20
2007,07,27,01,20,15.10
2007,07,27,01,21,15.10
2007,07,27,01,22,15.10
2007,07,27,01,23,15.00
2007,07,27,01,24,15.00
2007,07,27,01,25,15.00
2007,07,27,01,26,14.90
2007,07,27,01,27,14.90
2007,07,27,01,28,14.90
2007,07,27,01,29,14.80
2007,07,27,01,30,14.80
2007,07,27,01,31,14.80
2007,07,27,01,32,14.80
2007,07,27,01,33,14.70
2007,07,27,01,34,14.70
2007,07,27,01,35,14.60
2007,07,27,01,36,14.60
2007,07,27,01,37,14.50
2007,07,27,01,38,14.50
2007,07,27,01,39,14.50
2007,07,27,01,40,14.40
2007,07,27,01,41,14.40
2007,07,27,01,42,14.30
2007,07,27,01,43,14.30
2007,07,27,01,44,14.30
2007,07,27,01,45,14.20
2007,07,27,01,46,14.20
2007,07,27,01,47,14.20
2007,07,27,01,48,14.20
2007,07,27,01,49,14.10
2007,07,27,01,50,14.10
2007,07,27,01,51,14.00
2007,07,27,01,52,14.00
2007,07,27,01,53,13.90
2007,07,27,01,54,13.90
2007,07,27,01,55,13.80
2007,07,27,01,56,13.80
2007,07,27,01,57,13.70
2007,07,27,01,58,13.70
2007,07,27,01,59,13.60
2007,07,27,02,00,13.60
2007,07,27,02,01,13.60
2007,07,27,02,02,13.50
2007,07,27,02,03,13.40
2007,07,27,02,04,13.40
2007,07,27,02,05,13.30
2007,07,27,02,06,13.30
2007,07,27,02,07,13.30
2007,07,27,02,08,13.20
2007,07,27,02,09,13.20
2007,07,27,02,10,13.10
2007,07,27,02,11,13.10
2007,07,27,02,12,13.10
2007,07,27,02,13,13.00
2007,07,27,02,14,13.00
2007,07,27,02,15,13.00
2007,07,27,02,16,12.90
2007,07,27,02,17,12.90
2007,07,27,02,18,12.90
2007,07,27,02,19,12.80
2007,07,27,02,20,12.80
2007,07,27,02,21,12.80
2007,07,27,02,22,12.80
2007,07,27,02,23,12.80
2007,07,27,02,24,12.80
2007,07,27,02,25,12.70
2007,07,27,02,26,12.70
2007,07,27,02,27,12.70
2007,07,27,02,28,12.60
2007,07,27,02,29,12.60
2007,07,27,02,30,12.60
2007,07,27,02,31,12.60
2007,07,27,02,32,12.60
2007,07,27,02,33,12.50
2007,07,27,02,34,12.50
2007,07,27,02,35,12.50
2007,07,27,02,36,12.50
2007,07,27,02,37,12.50
2007,07,27,02,38,12.50
2007,07,27,02,39,12.50
2007,07,27,02,40,12.50
2007,07,27,02,41,12.40
2007,07,27,02,42,12.40
2007,07,27,02,43,12.40
2007,07,27,02,44,12.30
2007,07,27,02,45,12.30
2007,07,27,02,46,12.30
2007,07,27,02,47,12.30
2007,07,27,02,48,12.20
2007,07,27,02,49,12.20
2007,07,27,02,50,12.20
2007,07,27,02,51,12.20
2007,07,27,02,52,12.20
2007,07,27,02,53,12.10
2007,07,27,02,54,12.10
2007,07,27,02,55,12.10
2007,07,27,02,56,12.10
2007,07,27,02,57,12.20
2007,07,27,02,58,12.10
2007,07,27,02,59,12.10
2007,07,27,03,00,12.10
2007,07,27,03,01,12.10
2007,07,27,03,02,12.10
2007,07,27,03,03,12.10
2007,07,27,03,04,12.00
2007,07,27,03,05,12.00
2007,07,27,03,06,12.00
2007,07,27,03,07,12.00
2007,07,27,03,08,12.00
2007,07,27,03,09,12.00
2007,07,27,03,10,12.10
2007,07,27,03,11,12.10
2007,07,27,03,12,12.10
2007,07,27,03,13,12.10
2007,07,27,03,14,12.10
2007,07,27,03,15,12.10
2007,07,27,03,16,12.10
2007,07,27,03,17,12.10
2007,07,27,03,18,12.10
2007,07,27,03,19,12.10
2007,07,27,03,20,12.10
2007,07,27,03,21,12.10
2007,07,27,03,22,12.10
2007,07,27,03,23,12.10
2007,07,27,03,24,12.10
2007,07,27,03,25,12.10
2007,07,27,03,26,12.10
2007,07,27,03,27,12.10
2007,07,27,03,28,12.10
2007,07,27,03,29,12.00
2007,07,27,03,30,12.00
2007,07,27,03,31,12.00
2007,07,27,03,32,11.90
2007,07,27,03,33,11.90
2007,07,27,03,34,11.90
2007,07,27,03,35,11.80
2007,07,27,03,36,11.80
2007,07,27,03,37,11.80
2007,07,27,03,38,11.80
2007,07,27,03,39,11.80
2007,07,27,03,40,11.80
2007,07,27,03,41,11.80
2007,07,27,03,42,11.80
2007,07,27,03,43,11.80
2007,07,27,03,44,11.80
2007,07,27,03,45,11.70
2007,07,27,03,46,11.70
2007,07,27,03,47,11.60
2007,07,27,03,48,11.60
2007,07,27,03,49,11.60
2007,07,27,03,50,11.60
2007,07,27,03,51,11.60
2007,07,27,03,52,11.50
2007,07,27,03,53,11.40
2007,07,27,03,54,11.40
2007,07,27,03,55,11.40
2007,07,27,03,56,11.40
2007,07,27,03,57,11.40
2007,07,27,03,58,11.40
2007,07,27,03,59,11.40
2007,07,27,04,00,11.40
2007,07,27,04,01,11.40
2007,07,27,04,02,11.40
2007,07,27,04,03,11.40
2007,07,27,04,04,11.40
2007,07,27,04,05,11.40
2007,07,27,04,06,11.40
2007,07,27,04,07,11.40
2007,07,27,04,08,11.40
2007,07,27,04,09,11.30
2007,07,27,04,10,11.30
2007,07,27,04,11,11.30
2007,07,27,04,12,11.20
2007,07,27,04,13,11.20
2007,07,27,04,14,11.20
2007,07,27,04,15,11.20
2007,07,27,04,16,11.20
2007,07,27,04,17,11.10
2007,07,27,04,18,11.10
2007,07,27,04,19,11.10
2007,07,27,04,20,11.10
2007,07,27,04,21,11.10
2007,07,27,04,22,11.10
2007,07,27,04,23,11.10
2007,07,27,04,24,11.10
2007,07,27,04,25,11.10
2007,07,27,04,26,11.10
2007,07,27,04,27,11.10
2007,07,27,04,28,11.10
2007,07,27,04,29,11.20
2007,07,27,04,30,11.20
2007,07,27,04,31,11.20
2007,07,27,04,32,11.20
2007,07,27,04,33,11.20
2007,07,27,04,34,11.10
2007,07,27,04,35,11.10
2007,07,27,04,36,11.10
2007,07,27,04,37,11.10
2007,07,27,04,38,11.10
2007,07,27,04,39,11.10
2007,07,27,04,40,11.00
2007,07,27,04,41,10.90
2007,07,27,04,42,10.90
2007,07,27,04,43,10.90
2007,07,27,04,44,10.90
2007,07,27,04,45,10.90
2007,07,27,04,46,10.90
2007,07,27,04,47,10.90
2007,07,27,04,48,10.90
2007,07,27,04,49,10.90
2007,07,27,04,50,10.90
2007,07,27,04,51,10.90
2007,07,27,04,52,10.90
2007,07,27,04,53,10.90
2007,07,27,04,54,10.90
2007,07,27,04,55,10.90
2007,07,27,04,56,10.90
2007,07,27,04,57,10.90
2007,07,27,04,58,10.90
2007,07,27,04,59,10.90
2007,07,27,05,00,10.90
2007,07,27,05,01,10.90
2007,07,27,05,02,10.90
2007,07,27,05,03,10.90
2007,07,27,05,04,10.90
2007,07,27,05,05,10.90
2007,07,27,05,06,10.90
2007,07,27,05,07,10.90
2007,07,27,05,08,10.90
2007,07,27,05,09,10.80
2007,07,27,05,10,10.80
2007,07,27,05,11,10.80
2007,07,27,05,12,10.70
2007,07,27,05,13,10.70
2007,07,27,05,14,10.70
2007,07,27,05,15,10.70
2007,07,27,05,16,10.60
2007,07,27,05,17,10.60
2007,07,27,05,18,10.60
2007,07,27,05,19,10.60
2007,07,27,05,20,10.60
2007,07,27,05,21,10.50
2007,07,27,05,22,10.40
2007,07,27,05,23,10.40
2007,07,27,05,24,10.40
2007,07,27,05,25,10.40
2007,07,27,05,26,10.40
2007,07,27,05,27,10.40
2007,07,27,05,28,10.30
2007,07,27,05,29,10.30
2007,07,27,05,30,10.30
2007,07,27,05,31,10.30
2007,07,27,05,32,10.30
2007,07,27,05,33,10.30
2007,07,27,05,34,10.30
2007,07,27,05,35,10.30
2007,07,27,05,36,10.30
2007,07,27,05,37,10.30
2007,07,27,05,38,10.30
2007,07,27,05,39,10.30
2007,07,27,05,40,10.30
2007,07,27,05,41,10.30
2007,07,27,05,42,10.30
2007,07,27,05,43,10.30
2007,07,27,05,44,10.30
2007,07,27,05,45,10.30
2007,07,27,05,46,10.30
2007,07,27,05,47,10.30
2007,07,27,05,48,10.30
2007,07,27,05,49,10.30
2007,07,27,05,50,10.20
2007,07,27,05,51,10.20
2007,07,27,05,52,10.20
2007,07,27,05,53,10.20
2007,07,27,05,54,10.20
2007,07,27,05,55,10.20
2007,07,27,05,56,10.10
2007,07,27,05,57,10.10
2007,07,27,05,58,10.10
2007,07,27,05,59,10.10
2007,07,27,06,00,10.10
2007,07,27,06,01,10.10
2007,07,27,06,02,10.10
2007,07,27,06,03,10.10
2007,07,27,06,04,10.10
2007,07,27,06,05,10.10
2007,07,27,06,06,10.10
2007,07,27,06,07,10.10
2007,07,27,06,08,10.10
2007,07,27,06,09,10.20
2007,07,27,06,10,10.20
2007,07,27,06,11,10.20
2007,07,27,06,12,10.20
2007,07,27,06,13,10.20
2007,07,27,06,14,10.20
2007,07,27,06,15,10.20
2007,07,27,06,16,10.20
2007,07,27,06,17,10.30
2007,07,27,06,18,10.30
2007,07,27,06,19,10.40
2007,07,27,06,20,10.40
2007,07,27,06,21,10.40
2007,07,27,06,22,10.50
2007,07,27,06,23,10.60
2007,07,27,06,24,10.60
2007,07,27,06,25,10.60
2007,07,27,06,26,10.60
2007,07,27,06,27,10.60
2007,07,27,06,28,10.60
2007,07,27,06,29,10.70
2007,07,27,06,30,10.70
2007,07,27,06,31,10.70
2007,07,27,06,32,10.80
2007,07,27,06,33,10.90
2007,07,27,06,34,10.90
2007,07,27,06,35,10.90
2007,07,27,06,36,10.90
2007,07,27,06,37,11.00
2007,07,27,06,38,11.10
2007,07,27,06,39,11.10
2007,07,27,06,40,11.20
2007,07,27,06,41,11.30
2007,07,27,06,42,11.40
2007,07,27,06,43,11.40
2007,07,27,06,44,11.50
2007,07,27,06,45,11.60
2007,07,27,06,46,11.60
2007,07,27,06,47,11.70
2007,07,27,06,48,11.80
2007,07,27,06,49,11.80
2007,07,27,06,50,11.90
2007,07,27,06,51,12.00
2007,07,27,06,52,12.10
2007,07,27,06,53,12.20
2007,07,27,06,54,12.20
2007,07,27,06,55,12.30
2007,07,27,06,56,12.30
2007,07,27,06,57,12.30
2007,07,27,06,58,12.40
2007,07,27,06,59,12.40
2007,07,27,07,00,12.40
2007,07,27,07,01,12.50
2007,07,27,07,02,12.50
2007,07,27,07,03,12.50
2007,07,27,07,04,12.60
2007,07,27,07,05,12.60
2007,07,27,07,06,12.70
2007,07,27,07,07,12.70
2007,07,27,07,08,12.80
2007,07,27,07,09,12.80
2007,07,27,07,10,12.90
2007,07,27,07,11,12.90
2007,07,27,07,12,13.00
2007,07,27,07,13,13.10
2007,07,27,07,14,13.20
2007,07,27,07,15,13.20
2007,07,27,07,16,13.30
2007,07,27,07,17,13.30
2007,07,27,07,18,13.40
2007,07,27,07,19,13.40
2007,07,27,07,20,13.50
2007,07,27,07,21,13.60
2007,07,27,07,22,13.70
2007,07,27,07,23,13.90
2007,07,27,07,24,14.00
2007,07,27,07,25,14.10
2007,07,27,07,26,14.20
2007,07,27,07,27,14.30
2007,07,27,07,28,14.30
2007,07,27,07,29,14.40
2007,07,27,07,30,14.40
2007,07,27,07,31,14.40
2007,07,27,07,32,14.40
2007,07,27,07,33,14.40
2007,07,27,07,34,14.50
2007,07,27,07,35,14.50
2007,07,27,07,36,14.60
2007,07,27,07,37,14.60
2007,07,27,07,38,14.60
2007,07,27,07,39,14.50
2007,07,27,07,40,14.50
2007,07,27,07,41,14.50
2007,07,27,07,42,14.40
2007,07,27,07,43,14.40
2007,07,27,07,44,14.30
2007,07,27,07,45,14.20
2007,07,27,07,46,14.20
2007,07,27,07,47,14.20
2007,07,27,07,48,14.30
2007,07,27,07,49,14.20
2007,07,27,07,50,14.20
2007,07,27,07,51,14.30
2007,07,27,07,52,14.30
2007,07,27,07,53,14.30
2007,07,27,07,54,14.20
2007,07,27,07,55,14.20
2007,07,27,07,56,14.30
2007,07,27,07,57,14.30
2007,07,27,07,58,14.30
2007,07,27,07,59,14.30
2007,07,27,08,00,14.40
2007,07,27,08,01,14.40
2007,07,27,08,02,14.50
2007,07,27,08,03,14.50
2007,07,27,08,04,14.60
2007,07,27,08,05,14.70
2007,07,27,08,06,14.70
2007,07,27,08,07,14.80
2007,07,27,08,08,14.80
2007,07,27,08,09,14.90
2007,07,27,08,10,14.90
2007,07,27,08,11,14.90
2007,07,27,08,12,15.00
2007,07,27,08,13,15.00
2007,07,27,08,14,15.00
2007,07,27,08,15,15.10
2007,07,27,08,16,15.10
2007,07,27,08,17,15.10
2007,07,27,08,18,15.10
2007,07,27,08,19,15.10
2007,07,27,08,20,15.10
2007,07,27,08,21,15.10
2007,07,27,08,22,15.10
2007,07,27,08,23,15.10
2007,07,27,08,24,15.10
2007,07,27,08,25,15.10
2007,07,27,08,26,15.10
2007,07,27,08,27,15.10
2007,07,27,08,28,15.00
2007,07,27,08,29,15.10
2007,07,27,08,30,15.10
2007,07,27,08,31,15.10
2007,07,27,08,32,15.00
2007,07,27,08,33,15.10
2007,07,27,08,34,15.10
2007,07,27,08,35,15.10
2007,07,27,08,36,15.10
2007,07,27,08,37,15.20
2007,07,27,08,38,15.20
2007,07,27,08,39,15.20
2007,07,27,08,40,15.20
2007,07,27,08,41,15.20
2007,07,27,08,42,15.30
2007,07,27,08,43,15.30
2007,07,27,08,44,15.40
2007,07,27,08,45,15.40
2007,07,27,08,46,15.50
2007,07,27,08,47,15.50
2007,07,27,08,48,15.60
2007,07,27,08,49,15.60
2007,07,27,08,50,15.80
2007,07,27,08,51,15.80
2007,07,27,08,52,15.80
2007,07,27,08,53,15.90
2007,07,27,08,54,15.90
2007,07,27,08,55,15.90
2007,07,27,08,56,16.10
2007,07,27,08,57,16.10
2007,07,27,08,58,16.10
2007,07,27,08,59,16.10
2007,07,27,09,00,16.30
2007,07,27,09,01,16.40
2007,07,27,09,02,16.40
2007,07,27,09,03,16.50
2007,07,27,09,04,16.60
2007,07,27,09,05,16.70
2007,07,27,09,06,16.70
2007,07,27,09,07,16.70
2007,07,27,09,08,16.70
2007,07,27,09,09,16.70
2007,07,27,09,10,16.70
2007,07,27,09,11,16.70
2007,07,27,09,12,16.70
2007,07,27,09,13,16.70
2007,07,27,09,14,16.60
2007,07,27,09,15,16.50
2007,07,27,09,16,16.40
2007,07,27,09,17,16.30
2007,07,27,09,18,16.10
2007,07,27,09,19,16.10
2007,07,27,09,20,16.10
2007,07,27,09,21,16.10
2007,07,27,09,22,16.10
2007,07,27,09,23,16.10
2007,07,27,09,24,16.10
2007,07,27,09,25,16.20
2007,07,27,09,26,16.30
2007,07,27,09,27,16.30
2007,07,27,09,28,16.40
2007,07,27,09,29,16.30
2007,07,27,09,30,16.30
2007,07,27,09,31,16.30
2007,07,27,09,32,16.30
2007,07,27,09,33,16.30
2007,07,27,09,34,16.30
2007,07,27,09,35,16.30
2007,07,27,09,36,16.40
2007,07,27,09,37,16.50
2007,07,27,09,38,16.70
2007,07,27,09,39,16.70
2007,07,27,09,40,16.70
2007,07,27,09,41,16.70
2007,07,27,09,42,16.60
2007,07,27,09,43,16.40
2007,07,27,09,44,16.40
2007,07,27,09,45,16.40
2007,07,27,09,46,16.50
2007,07,27,09,47,16.60
2007,07,27,09,48,16.70
2007,07,27,09,49,16.70
2007,07,27,09,50,16.80
2007,07,27,09,51,16.90
2007,07,27,09,52,16.90
2007,07,27,09,53,16.90
2007,07,27,09,54,16.90
2007,07,27,09,55,16.90
2007,07,27,09,56,16.80
2007,07,27,09,57,16.60
2007,07,27,09,58,16.50
2007,07,27,09,59,16.40
2007,07,27,10,00,16.40
2007,07,27,10,01,16.40
2007,07,27,10,02,16.50
2007,07,27,10,03,16.50
2007,07,27,10,04,16.40
2007,07,27,10,05,16.50
2007,07,27,10,06,16.40
2007,07,27,10,07,16.40
2007,07,27,10,08,16.40
2007,07,27,10,09,16.40
2007,07,27,10,10,16.40
2007,07,27,10,11,16.40
2007,07,27,10,12,16.40
2007,07,27,10,13,16.40
2007,07,27,10,14,16.40
2007,07,27,10,15,16.50
2007,07,27,10,16,16.60
2007,07,27,10,17,16.70
2007,07,27,10,18,16.80
2007,07,27,10,19,16.90
2007,07,27,10,20,16.90
2007,07,27,10,21,17.00
2007,07,27,10,22,17.00
2007,07,27,10,23,17.00
2007,07,27,10,24,17.10
2007,07,27,10,25,17.10
2007,07,27,10,26,17.20
2007,07,27,10,27,17.20
2007,07,27,10,28,17.20
2007,07,27,10,29,17.20
2007,07,27,10,30,17.20
2007,07,27,10,31,17.20
2007,07,27,10,32,17.20
2007,07,27,10,33,17.20
2007,07,27,10,34,17.30
2007,07,27,10,35,17.30
2007,07,27,10,36,17.30
2007,07,27,10,37,17.30
2007,07,27,10,38,17.20
2007,07,27,10,39,17.20
2007,07,27,10,40,17.30
2007,07,27,10,41,17.30
2007,07,27,10,42,17.30
2007,07,27,10,43,17.40
2007,07,27,10,44,17.40
2007,07,27,10,45,17.40
2007,07,27,10,46,17.50
2007,07,27,10,47,17.60
2007,07,27,10,48,17.70
2007,07,27,10,49,17.80
2007,07,27,10,50,17.70
2007,07,27,10,51,17.50
2007,07,27,10,52,17.40
2007,07,27,10,53,17.30
2007,07,27,10,54,17.20
2007,07,27,10,55,17.20
2007,07,27,10,56,17.20
2007,07,27,10,57,17.10
2007,07,27,10,58,17.00
2007,07,27,10,59,17.00
2007,07,27,11,00,17.00
2007,07,27,11,01,16.90
2007,07,27,11,02,16.90
2007,07,27,11,03,16.90
2007,07,27,11,04,17.00
2007,07,27,11,05,17.10
2007,07,27,11,06,17.20
2007,07,27,11,07,17.20
2007,07,27,11,08,17.20
2007,07,27,11,09,17.20
2007,07,27,11,10,17.20
2007,07,27,11,11,17.20
2007,07,27,11,12,17.20
2007,07,27,11,13,17.10
2007,07,27,11,14,17.10
2007,07,27,11,15,17.20
2007,07,27,11,16,17.30
2007,07,27,11,17,17.30
2007,07,27,11,18,17.30
2007,07,27,11,19,17.30
2007,07,27,11,20,17.30
2007,07,27,11,21,17.30
2007,07,27,11,22,17.10
2007,07,27,11,23,17.10
2007,07,27,11,24,17.10
2007,07,27,11,25,17.20
2007,07,27,11,26,17.10
2007,07,27,11,27,17.10
2007,07,27,11,28,17.10
2007,07,27,11,29,17.20
2007,07,27,11,30,17.20
2007,07,27,11,31,17.20
2007,07,27,11,32,17.30
2007,07,27,11,33,17.20
2007,07,27,11,34,17.20
2007,07,27,11,35,17.30
2007,07,27,11,36,17.30
2007,07,27,11,37,17.30
2007,07,27,11,38,17.30
2007,07,27,11,39,17.30
2007,07,27,11,40,17.30
2007,07,27,11,41,17.30
2007,07,27,11,42,17.20
2007,07,27,11,43,17.20
2007,07,27,11,44,17.20
2007,07,27,11,45,17.30
2007,07,27,11,46,17.30
2007,07,27,11,47,17.30
2007,07,27,11,48,17.30
2007,07,27,11,49,17.30
2007,07,27,11,50,17.30
2007,07,27,11,51,17.30
2007,07,27,11,52,17.40
2007,07,27,11,53,17.50
2007,07,27,11,54,17.50
2007,07,27,11,55,17.40
2007,07,27,11,56,17.40
2007,07,27,11,57,17.30
2007,07,27,11,58,17.30
2007,07,27,11,59,17.20
2007,07,27,12,00,17.20
2007,07,27,12,01,17.20
2007,07,27,12,02,17.30
2007,07,27,12,03,17.30
2007,07,27,12,04,17.30
2007,07,27,12,05,17.30
2007,07,27,12,06,17.30
2007,07,27,12,07,17.40
2007,07,27,12,08,17.40
2007,07,27,12,09,17.40
2007,07,27,12,10,17.50
2007,07,27,12,11,17.50
2007,07,27,12,12,17.50
2007,07,27,12,13,17.60
2007,07,27,12,14,17.60
2007,07,27,12,15,17.60
2007,07,27,12,16,17.50
2007,07,27,12,17,17.50
2007,07,27,12,18,17.60
2007,07,27,12,19,17.70
2007,07,27,12,20,17.70
2007,07,27,12,21,17.80
2007,07,27,12,22,17.80
2007,07,27,12,23,17.90
2007,07,27,12,24,17.90
2007,07,27,12,25,17.90
2007,07,27,12,26,17.90
2007,07,27,12,27,17.90
2007,07,27,12,28,17.80
2007,07,27,12,29,17.80
2007,07,27,12,30,17.80
2007,07,27,12,31,17.80
2007,07,27,12,32,17.90
2007,07,27,12,33,17.90
2007,07,27,12,34,17.90
2007,07,27,12,35,17.90
2007,07,27,12,36,17.90
2007,07,27,12,37,17.90
2007,07,27,12,38,17.90
2007,07,27,12,39,17.90
2007,07,27,12,40,17.90
2007,07,27,12,41,17.90
2007,07,27,12,42,17.90
2007,07,27,12,43,17.90
2007,07,27,12,44,17.90
2007,07,27,12,45,17.90
2007,07,27,12,46,17.90
2007,07,27,12,47,17.80
2007,07,27,12,48,17.80
2007,07,27,12,49,17.90
2007,07,27,12,50,17.90
2007,07,27,12,51,17.90
2007,07,27,12,52,17.90
2007,07,27,12,53,17.80
2007,07,27,12,54,17.70
2007,07,27,12,55,17.70
2007,07,27,12,56,17.70
2007,07,27,12,57,17.70
2007,07,27,12,58,17.80
2007,07,27,12,59,17.80
2007,07,27,13,00,17.90
2007,07,27,13,01,17.90
2007,07,27,13,02,17.90
2007,07,27,13,03,18.00
2007,07,27,13,04,18.10
2007,07,27,13,05,18.20
2007,07,27,13,06,18.20
2007,07,27,13,07,18.20
2007,07,27,13,08,18.20
2007,07,27,13,09,18.20
2007,07,27,13,10,18.20
2007,07,27,13,11,18.30
2007,07,27,13,12,18.30
2007,07,27,13,13,18.30
2007,07,27,13,14,18.30
2007,07,27,13,15,18.30
2007,07,27,13,16,18.10
2007,07,27,13,17,17.90
2007,07,27,13,18,17.90
2007,07,27,13,19,17.90
2007,07,27,13,20,17.90
2007,07,27,13,21,17.90
2007,07,27,13,22,17.80
2007,07,27,13,23,17.80
2007,07,27,13,24,17.70
2007,07,27,13,25,17.60
2007,07,27,13,26,17.60
2007,07,27,13,27,17.70
2007,07,27,13,28,17.80
2007,07,27,13,29,17.80
2007,07,27,13,30,17.80
2007,07,27,13,31,17.80
2007,07,27,13,32,17.80
2007,07,27,13,33,17.70
2007,07,27,13,34,17.70
2007,07,27,13,35,17.60
2007,07,27,13,36,17.50
2007,07,27,13,37,17.50
2007,07,27,13,38,17.50
2007,07,27,13,39,17.50
2007,07,27,13,40,17.50
2007,07,27,13,41,17.40
2007,07,27,13,42,17.30
2007,07,27,13,43,17.40
2007,07,27,13,44,17.50
2007,07,27,13,45,17.50
2007,07,27,13,46,17.60
2007,07,27,13,47,17.70
2007,07,27,13,48,17.80
2007,07,27,13,49,17.70
2007,07,27,13,50,17.70
2007,07,27,13,51,17.60
2007,07,27,13,52,17.70
2007,07,27,13,53,17.70
2007,07,27,13,54,17.70
2007,07,27,13,55,17.70
2007,07,27,13,56,17.70
2007,07,27,13,57,17.80
2007,07,27,13,58,17.90
2007,07,27,13,59,17.90
2007,07,27,14,00,17.90
2007,07,27,14,01,18.00
2007,07,27,14,02,18.10
2007,07,27,14,03,18.20
2007,07,27,14,04,18.30
2007,07,27,14,05,18.40
2007,07,27,14,06,18.50
2007,07,27,14,07,18.50
2007,07,27,14,08,18.50
2007,07,27,14,09,18.40
2007,07,27,14,10,18.30
2007,07,27,14,11,18.30
2007,07,27,14,12,18.30
2007,07,27,14,13,18.30
2007,07,27,14,14,18.30
2007,07,27,14,15,18.20
2007,07,27,14,16,18.10
2007,07,27,14,17,18.10
2007,07,27,14,18,18.10
2007,07,27,14,19,18.00
2007,07,27,14,20,17.90
2007,07,27,14,21,17.80
2007,07,27,14,22,17.70
2007,07,27,14,23,17.80
2007,07,27,14,24,17.80
2007,07,27,14,25,17.90
2007,07,27,14,26,17.90
2007,07,27,14,27,17.90
2007,07,27,14,28,17.80
2007,07,27,14,29,17.80
2007,07,27,14,30,17.80
2007,07,27,14,31,17.80
2007,07,27,14,32,17.80
2007,07,27,14,33,17.90
2007,07,27,14,34,18.00
2007,07,27,14,35,18.10
2007,07,27,14,36,18.10
2007,07,27,14,37,18.10
2007,07,27,14,38,18.10
2007,07,27,14,39,18.20
2007,07,27,14,40,18.30
2007,07,27,14,41,18.40
2007,07,27,14,42,18.50
2007,07,27,14,43,18.60
2007,07,27,14,44,18.60
2007,07,27,14,45,18.60
2007,07,27,14,46,18.60
2007,07,27,14,47,18.60
2007,07,27,14,48,18.60
2007,07,27,14,49,18.60
2007,07,27,14,50,18.60
2007,07,27,14,51,18.60
2007,07,27,14,52,18.60
2007,07,27,14,53,18.70
2007,07,27,14,54,18.80
2007,07,27,14,55,19.00
2007,07,27,14,56,19.10
2007,07,27,14,57,19.30
2007,07,27,14,58,19.40
2007,07,27,14,59,19.50
2007,07,27,15,00,19.60
2007,07,27,15,01,19.80
2007,07,27,15,02,19.80
2007,07,27,15,03,19.90
2007,07,27,15,04,19.90
2007,07,27,15,05,20.00
2007,07,27,15,06,20.10
2007,07,27,15,07,20.20
2007,07,27,15,08,20.20
2007,07,27,15,09,20.40
2007,07,27,15,10,20.50
2007,07,27,15,11,20.70
2007,07,27,15,12,20.80
2007,07,27,15,13,20.90
2007,07,27,15,14,21.00
2007,07,27,15,15,21.10
2007,07,27,15,16,21.30
2007,07,27,15,17,21.30
2007,07,27,15,18,21.40
2007,07,27,15,19,21.50
2007,07,27,15,20,21.60
2007,07,27,15,21,21.60
2007,07,27,15,22,21.60
2007,07,27,15,23,21.60
2007,07,27,15,24,21.60
2007,07,27,15,25,21.50
2007,07,27,15,26,21.40
2007,07,27,15,27,21.30
2007,07,27,15,28,21.30
2007,07,27,15,29,21.10
2007,07,27,15,30,20.80
2007,07,27,15,31,20.70
2007,07,27,15,32,20.60
2007,07,27,15,33,20.60
2007,07,27,15,34,20.60
2007,07,27,15,35,20.60
2007,07,27,15,36,20.50
2007,07,27,15,37,20.40
2007,07,27,15,38,20.40
2007,07,27,15,39,20.30
2007,07,27,15,40,20.30
2007,07,27,15,41,20.30
2007,07,27,15,42,20.40
2007,07,27,15,43,20.40
2007,07,27,15,44,20.50
2007,07,27,15,45,20.50
2007,07,27,15,46,20.60
2007,07,27,15,47,20.70
2007,07,27,15,48,20.80
2007,07,27,15,49,20.90
2007,07,27,15,50,21.00
2007,07,27,15,51,20.90
2007,07,27,15,52,20.80
2007,07,27,15,53,20.70
2007,07,27,15,54,20.60
2007,07,27,15,55,20.60
2007,07,27,15,56,20.70
2007,07,27,15,57,20.80
2007,07,27,15,58,20.80
2007,07,27,15,59,20.90
2007,07,27,16,00,20.90
2007,07,27,16,01,20.90
2007,07,27,16,02,21.00
2007,07,27,16,03,21.00
2007,07,27,16,04,21.00
2007,07,27,16,05,21.10
2007,07,27,16,06,21.10
2007,07,27,16,07,21.20
2007,07,27,16,08,21.10
2007,07,27,16,09,21.00
2007,07,27,16,10,20.90
2007,07,27,16,11,20.90
2007,07,27,16,12,20.80
2007,07,27,16,13,20.70
2007,07,27,16,14,20.60
2007,07,27,16,15,20.50
2007,07,27,16,16,20.50
2007,07,27,16,17,20.50
2007,07,27,16,18,20.60
2007,07,27,16,19,20.60
2007,07,27,16,20,20.60
2007,07,27,16,21,20.60
2007,07,27,16,22,20.60
2007,07,27,16,23,20.50
2007,07,27,16,24,20.50
2007,07,27,16,25,20.40
2007,07,27,16,26,20.40
2007,07,27,16,27,20.40
2007,07,27,16,28,20.30
2007,07,27,16,29,20.30
2007,07,27,16,30,20.30
2007,07,27,16,31,20.20
2007,07,27,16,32,20.20
2007,07,27,16,33,20.20
2007,07,27,16,34,20.10
2007,07,27,16,35,19.90
2007,07,27,16,36,19.70
2007,07,27,16,37,19.50
2007,07,27,16,38,19.40
2007,07,27,16,39,19.20
2007,07,27,16,40,19.10
2007,07,27,16,41,19.00
2007,07,27,16,42,18.90
2007,07,27,16,43,18.90
2007,07,27,16,44,18.90
2007,07,27,16,45,19.10
2007,07,27,16,46,19.10
2007,07,27,16,47,19.20
2007,07,27,16,48,19.30
2007,07,27,16,49,19.40
2007,07,27,16,50,19.60
2007,07,27,16,51,19.60
2007,07,27,16,52,19.70
2007,07,27,16,53,19.80
2007,07,27,16,54,19.90
2007,07,27,16,55,19.90
2007,07,27,16,56,20.00
2007,07,27,16,57,20.10
2007,07,27,16,58,20.20
2007,07,27,16,59,20.40
2007,07,27,17,00,20.50
2007,07,27,17,01,20.50
2007,07,27,17,02,20.60
2007,07,27,17,03,20.70
2007,07,27,17,04,20.80
2007,07,27,17,05,20.80
2007,07,27,17,06,20.90
2007,07,27,17,07,21.00
2007,07,27,17,08,21.10
2007,07,27,17,09,21.20
2007,07,27,17,10,21.40
2007,07,27,17,11,21.50
2007,07,27,17,12,21.70
2007,07,27,17,13,21.80
2007,07,27,17,14,21.90
2007,07,27,17,15,22.00
2007,07,27,17,16,22.10
2007,07,27,17,17,22.20
2007,07,27,17,18,22.30
2007,07,27,17,19,22.40